Overview Statistics Trail Chart Weather Telemetry Raw packets
 

This is the latest recevied weather packets stored in our database for station/object OE6PWE-13. If no packets are shown the sender has not sent any weather packets the latest 10 day(s).

<< 10 11 12 13 14 15 16 >>
Time Temp. Humidity Pressure Rain* Wind** Luminosity Snow
1788443117 28.89° C 47% 1017 hPa 0 mm - - -
1788442211 29.44° C 45% 1017 hPa 0 mm - - -
1788441312 28.89° C 44% 1017 hPa 0 mm - - -
1788440412 28.33° C 49% 1018 hPa 0 mm - - -
1788439512 28.33° C 51% 1018 hPa 0 mm - - -
1788438611 29.44° C 49% 1018 hPa 0 mm - - -
1788437711 28.89° C 46% 1018 hPa 0 mm - - -
1788436811 28.33° C 47% 1018 hPa 0 mm - - -
1788435912 28.33° C 46% 1018 hPa 0 mm - - -
1788435012 28.33° C 49% 1018 hPa 0 mm - - -
1788434112 28.33° C 50% 1018 hPa 0 mm - - -
1788433212 28.33° C 49% 1019 hPa 0 mm - - -
1788432312 27.78° C 56% 1019 hPa 0 mm - - -
1788431412 26.67° C 58% 1019 hPa 0 mm - - -
1788430512 27.22° C 62% 1019 hPa 0 mm - - -
1788429612 26.11° C 66% 1020 hPa 0 mm - - -
1788428711 25.56° C 70% 1020 hPa 0 mm - - -
1788427812 25° C 72% 1020 hPa 0 mm - - -
1788426912 22.22° C 75% 1021 hPa 0 mm - - -
1788426011 19.44° C 98% 1021 hPa 0 mm - - -
1788425112 18.33° C 99% 1021 hPa 0 mm - - -
1788424212 18.89° C 99% 1021 hPa 0 mm - - -
1788423311 18.33° C 99% 1021 hPa 0 mm - - -
1788422412 17.78° C 99% 1021 hPa 0 mm - - -
1788421512 17.22° C 99% 1021 hPa 0 mm - - -

* Rain latest hour (hover to see other rain measurements)
** Current wind speed in m/s (hover to see current wind gust speed)